Overview Statistics Trail Chart Weather Telemetry Raw packets
 

This is the latest recevied weather packets stored in our database for station/object WC4PEM-4. If no packets are shown the sender has not sent any weather packets the latest 10 day(s).

<< 3 4 5 6 7 8 9 >>
Time Temp. Humidity Pressure Rain* Wind** Luminosity Snow
1788546970 33.33° C 62% 1014.3 hPa 0 mm - - -
1788546670 33.33° C 63% 1014.5 hPa 0 mm - - -
1788546370 33.33° C 64% 1014.5 hPa 0 mm - - -
1788546070 32.78° C 65% 1014.5 hPa 0 mm - - -
1788545770 32.78° C 64% 1014.7 hPa 0 mm - - -
1788545470 33.33° C 64% 1014.8 hPa 0 mm - - -
1788545170 33.33° C 65% 1014.7 hPa 0 mm - - -
1788544871 33.33° C 62% 1014.8 hPa 0 mm - - -
1788544570 33.33° C 63% 1015 hPa 0 mm - - -
1788544271 33.33° C 62% 1015 hPa 0 mm - - -
1788543970 33.33° C 62% 1015 hPa 0 mm - - -
1788543670 33.33° C 61% 1014.9 hPa 0 mm - - -
1788543370 33.33° C 64% 1015 hPa 0 mm - - -
1788543071 33.33° C 63% 1015.1 hPa 0 mm - - -
1788542771 33.33° C 63% 1015.2 hPa 0 mm - - -
1788542471 32.78° C 64% 1015.3 hPa 0 mm - - -
1788542171 32.78° C 64% 1015.3 hPa 0 mm - - -
1788541871 32.78° C 66% 1015.5 hPa 0 mm - - -
1788541571 32.78° C 62% 1015.5 hPa 0 mm - - -
1788541271 32.78° C 64% 1015.4 hPa 0 mm - - -
1788540971 32.78° C 66% 1015.4 hPa 0 mm - - -
1788540671 32.22° C 66% 1015.6 hPa 0 mm - - -
1788540371 32.22° C 67% 1015.7 hPa 0 mm - - -
1788540071 32.22° C 68% 1015.7 hPa 0 mm - - -
1788539779 31.67° C 68% 1015.8 hPa 0 mm - - -

* Rain latest hour (hover to see other rain measurements)
** Current wind speed in m/s (hover to see current wind gust speed)